Location: Ackerson Creek
(37.8210°N, 119.8757°W)
Time: 14:54:26
(UTC+00:00)

Iridium 51 - Pass Details

Date: 13 April 2024
Orbit: 435 x 635 km, 86.4° (Epoch: 22 May)

Event Time Altitude Azimuth Distance (km) Brightness Sun altitude
Exits shadow 12:20:05 - 192° (SSW) 1,655 6.4 -13.3°
Reaches altitude 10° 12:20:15 10° 193° (SSW) 1,583 6.3 -13.2°
Maximum altitude 12:23:37 59° 273° (W) 519 3.9 -12.6°
Drops below altitude 10° 12:26:55 10° 354° (N) 1,552 6.8 -12.0°
Sets 12:28:58 0° 358° (N) 2,422 7.9 -11.6°
